STARLINK-1413, 45689

Orbit data source: Space-Track

STARLINK-1413, 45689 is a payload satellite owned by SpaceX/Seattle (US) in LEO that was launched on Thu, 04 Jun 2020 UTC via an FALCON 9 launch vehicle from the Air Force Eastern Test Range (AFETR). Payload-class satellites include a variety of spacecraft equipped with specific instruments for various scientific and technological missions. These include communications satellites like Starlink; space stations such as the ISS; scientific satellites like the Hubble; Earth observation satellites from companies like Planet Labs, Umbra, and HawkEye 360; GPS; miniature CubeSats for education and research; and military/defense satellites.

Loading next visibility...
Identifier
45689, 2020-035AJ
Orbit
LEO
Last TLE update
16 hours ago
Origin
Manufacturer
SpaceX/Seattle
Mission
Operational Commercial Communications
Bus & Motor
STARLINK, Unknown motor
Mass
260 kg wet, ~248 kg dry
Launch date (UTC)
2020-06-04 (5 years ago)
Launch vehicle
FALCON 9
Launch site
Air Force Eastern Test Range (AFETR)
Object type
Payload
Rocket body
Debris
Shape & HBR
Box + 1 Pan, 8.86 m
Radar Cross Section
13.562 m², Large (>1 m²)

Expand to show TLE details & history

TLE from 16 hours ago
0 STARLINK-1413
1 45689U 20035AJ  25115.08958187 -.00000771  00000-0 -32830-4 0  9999
2 45689  53.0552  46.8651 0001882  59.4073 300.7102 15.06421271270440
Epoch: 2025-04-25T02:08Z
Definitive object data (Epoch: 2025-04-25T02:08:59.873Z)
Latitude
0.00002°
Longitude
161.26398°
Altitude
547.36 km
Speed
7.59 km/s
True Right ascension
03h 07m 27s
True Declination
0° 00' 00"
Sunlit
Object was in daylight at TLE epoch
Visualization TLE readout
Latitude
8.41853°
Longitude
164.63116°
Altitude
546.503 km
Speed
7.591 km/s
Apparent Right ascension
06h 13m 00s
Apparent Declination
-40° 51' 34"
Sunlit
Object is in daylight
Visualization observer readout
Local Sidereal Time
01:22:43
Azimuth
131.884° SE
Elevation
-14.245°
Doppler factor
1
Orbital elements
Apogee altitude
548.72 km
Perigee altitude
546.114 km
Semi-major axis
6,925.554 km
Eccentricity
0.0001882
Inclination
53.0552°
RAAN
46.8651°
Arg. of periapsis
59.4073°
True anomaly
300.69166°
Mean anomaly
300.7102°
Eccentric anomaly
300.70093°
Mean motion
3.76584 °/min
BSTAR
-0.00003283
Orbital period
95.6 mins
Loading maneuver chart data...
Loading SW <> Apogee altitude chart data...

STARLINK-1413 Visibility forecast

Observer location: undefined°, undefined°

Span
Click to sort rows by Start time (UTC) header in descending order
Start Az.
Max El. time (UTC)
Max El. Az.
Max El.
End time (UTC)
End Az.
6 mins2025-04-25 21:25:09.610Z193.109° SSW2025-04-25 21:28:09.610Z124.942° SE30.646°2025-04-25 21:31:09.610Z68.711° E
6 mins2025-04-25 23:05:09.610Z274.894° WNW2025-04-25 23:07:09.610Z319.111° NNW29.449°2025-04-25 23:11:09.610Z36.337° NE
5 mins2025-04-26 04:07:09.610Z334.903° NNW2025-04-26 04:09:09.610Z26.865° NE32.985°2025-04-26 04:12:09.610Z97.23° ESE
6 mins2025-04-26 05:46:09.610Z281.294° WNW2025-04-26 05:49:09.610Z215.957° SW25.821°2025-04-26 05:52:09.610Z168.668° S
|